Weather History for KHWD - March, 2013

Change the Weather History Date:

Thursday, March 14, 2013

  Actual Average Record
Temperature  
Mean Temperature 57 °F 56 °F  
Max Temperature 66 °F 64 °F 85 °F (2015)
Min Temperature 48 °F 47 °F 40 °F (2002)
Degree Days  
Heating Degree Days 8    
Month to date heating degree days 143  
Since 1 July heating degree days 1947  
Cooling Degree Days 0    
Month to date cooling degree days 0  
Year to date cooling degree days 0  
Growing Degree Days 5 (Base 50)    
Moisture  
Dew Point 49 °F    
Average Humidity 79    
Maximum Humidity 93    
Minimum Humidity 64    
Precipitation  
Precipitation 0.00 in - 0.70 in (2012)
Month to date precipitation 0.21  
Year to date precipitation 0.88  
Since 1 July precipitation 6.86  
Sea Level Pressure  
Sea Level Pressure 30.16 in    
Wind  
Wind Speed 4 mph (WNW)    
Max Wind Speed 12 mph    
Max Gust Speed 40 mph    
Visibility 9 miles    
Events      
T = Trace of Precipitation, MM = Missing Value Source: NWS Daily Summary

Daily Weather History Graph

Daily Weather History Graph

Search for Another Location

Airport or City:

Trip Planner

Search our weather history database for the weather conditions in past years. The results will help you decide how hot, cold, wet, or windy it might be!

Date:

Astronomy

Mar. 14, 2013 Rise Set
Actual Time 7:20 AM PDT 7:15 PM PDT
Civil Twilight 6:54 AM PDT 7:41 PM PDT
Nautical Twilight 6:24 AM PDT 8:11 PM PDT
Astronomical Twilight 5:53 AM PDT 8:42 PM PDT
Moon 8:41 AM PDT (3/14) 10:32 PM PDT (3/14)
Length of Visible Light 12h 46m
Length of Day
11h 54m
Waxing Crescent, 9% of the Moon is Illuminated
Mar 14
Waxing Crescent
Mar 19
First Quarter
Mar 27
Full
Apr 2
Last Quarter
Apr 10
New

Hourly Weather History & Observations

Time (PDT) Temp. Dew Point Humidity Pressure Visibility Wind Dir Wind Speed Gust Speed Precip Events Conditions
12:54 AM 55.0 °F 50.0 °F 83% 30.14 in 10.0 mi NW 3.5 mph - N/A   Clear
1:54 AM 53.1 °F 50.0 °F 89% 30.14 in 10.0 mi Calm Calm - N/A   Clear
2:54 AM 51.1 °F 48.0 °F 89% 30.14 in 10.0 mi NW 4.6 mph - N/A   Clear
3:54 AM 52.0 °F 48.0 °F 86% 30.13 in 10.0 mi Calm Calm - N/A   Clear
4:54 AM 50.0 °F 46.9 °F 89% 30.12 in 10.0 mi NW 3.5 mph - N/A   Clear
5:54 AM 50.0 °F 46.9 °F 89% 30.13 in 10.0 mi NW 3.5 mph - N/A   Clear
6:54 AM 50.0 °F 46.9 °F 89% 30.13 in 8.0 mi Calm Calm - N/A   Clear
7:54 AM 48.9 °F 46.9 °F 93% 30.15 in 6.0 mi Calm Calm - N/A   Scattered Clouds
8:54 AM 53.1 °F 48.9 °F 86% 30.17 in 7.0 mi NW 3.5 mph - N/A   Scattered Clouds
9:54 AM 55.9 °F 51.1 °F 84% 30.19 in 7.0 mi West 3.5 mph - N/A   Clear
10:54 AM 57.0 °F 52.0 °F 83% 30.19 in 7.0 mi Calm Calm - N/A   Clear
11:54 AM 59.0 °F 51.1 °F 75% 30.20 in 10.0 mi West 6.9 mph - N/A   Clear
12:54 PM 61.0 °F 51.1 °F 70% 30.20 in 10.0 mi NW 6.9 mph - N/A   Clear
1:54 PM 61.0 °F 51.1 °F 70% 30.19 in 10.0 mi West 9.2 mph - N/A   Clear
2:54 PM 62.1 °F 51.1 °F 67% 30.17 in 10.0 mi West 5.8 mph - N/A   Clear
3:54 PM 62.1 °F 50.0 °F 65% 30.17 in 10.0 mi West 6.9 mph - N/A   Clear
4:54 PM 61.0 °F 48.9 °F 64% 30.17 in 10.0 mi WNW 6.9 mph - N/A   Clear
5:54 PM 57.9 °F 48.0 °F 70% 30.16 in 10.0 mi WNW 4.6 mph - N/A   Clear
6:54 PM 54.0 °F 48.0 °F 80% 30.15 in 10.0 mi SW 3.5 mph - N/A   Clear
7:54 PM 57.0 °F 50.0 °F 77% 30.15 in 10.0 mi West 3.5 mph - N/A   Clear
8:54 PM 57.0 °F 48.9 °F 74% 30.16 in 10.0 mi Calm Calm - N/A   Clear
9:54 PM 53.1 °F 48.0 °F 83% 30.17 in 10.0 mi NNW 6.9 mph - N/A   Clear
10:54 PM 54.0 °F 46.0 °F 75% 30.17 in 10.0 mi Calm Calm - N/A   Clear
11:54 PM 52.0 °F 46.9 °F 83% 30.17 in 10.0 mi SSE 3.5 mph - N/A   Clear